Simultaneous Nadir Overpasses (SNOs) Predictions

Prediction of SNOs between GOES-15 and TERRA Satellite Orbit:

Table of predicted SNOs for the next 14.0 days since TLE Epoch: 7/6/2013
Index Date Time (GOES-15) GOES-15 Lat,Lon TERRA Lat,Lon Distance(km) Time Diff (sec)
1 07/07/2013 07:28:13 -0.01,-135.18 0.09,-134.87 36.24 80
2 07/09/2013 07:16:00 0.00,-135.22 0.70,-131.90 377.35 80
3 07/09/2013 19:39:54 0.02,-135.25 0.40,-137.06 205.94 80
4 07/11/2013 19:25:02 0.01,-135.28 -0.23,-134.10 134.74 80
5 07/12/2013 07:49:05 -0.04,-135.28 -0.87,-139.29 454.80 80
6 07/13/2013 19:12:49 0.01,-135.32 -0.85,-131.13 474.97 80
7 07/14/2013 07:36:52 -0.04,-135.31 -0.24,-136.32 114.74 80
8 07/16/2013 07:21:59 -0.03,-135.34 0.39,-133.36 224.57 80
9 07/16/2013 19:45:54
